Wind_Speed
31 32 33 33 34 33 33 33 33 33 34 35 36 37 38 39 40 40 40 40 40 41 41 40 41 40 41 41 42 42 42 43 43 43 43 44 44 44 43 43 44 44 45
31 32 34 34 33 33 34 34 34 34 35 36 36 37 38 39 41 41 41 42 42 43 43 43 43 43 42 42 43 43 44 44 44 45 45 46 46 46 46 46 46 46 47
32 32 32 33 33 34 34 35 35 35 35 36 36 37 38 39 40 41 42 43 44 44 44 45 45 44 44 44 44 44 45 45 45 46 47 47 48 48 48 49 49 49 49
33 34 34 33 33 35 36 35 36 36 36 36 37 37 38 39 40 41 43 44 45 45 45 45 45 45 44 44 44 45 45 45 46 47 48 49 50 50 50 51 51 51 52
34 34 34 34 34 34 35 36 36 36 37 37 38 38 39 39 40 41 42 43 45 45 45 45 45 45 45 45 45 46 46 47 48 48 49 50 51 51 52 52 53 54 54
34 35 35 35 35 35 35 36 36 37 38 38 39 39 40 40 40 41 42 43 44 45 46 46 47 47 47 47 47 48 48 49 49 50 51 52 53 53 54 55 55 56 56
34 35 35 36 36 36 36 36 37 37 38 39 39 40 40 40 41 42 42 43 43 45 46 46 47 48 49 49 49 49 49 50 51 51 52 54 55 55 55 56 57 57 57
34 35 36 36 36 36 37 37 37 38 39 39 40 40 41 41 42 43 43 43 43 44 45 47 48 49 49 50 51 51 51 52 52 53 53 55 55 57 57 57 58 59 59
33 34 35 36 37 37 37 37 37 37 38 40 41 42 43 43 43 43 43 44 44 45 46 47 48 49 50 51 52 53 53 54 55 55 55 56 56 57 58 59 60 60 60
33 33 34 35 36 36 37 37 37 38 39 41 41 42 43 43 43 43 44 44 45 45 46 47 48 49 50 51 52 54 55 55 56 56 57 57 58 59 60 60 61 61 61
32 32 33 34 35 36 36 37 38 39 40 41 42 42 43 44 44 44 44 45 45 46 47 47 48 50 51 52 53 54 55 56 57 58 58 58 59 59 61 61 61 61 62
31 32 33 34 35 36 37 37 38 39 40 41 42 43 44 44 44 44 44 45 46 47 48 48 49 50 51 52 53 54 54 55 57 58 58 58 59 59 60 60 60 61 62
31 32 33 34 35 36 37 38 39 40 41 42 43 44 44 44 44 44 45 45 46 48 48 49 50 51 51 52 53 53 53 54 55 56 57 58 58 58 59 60 59 60 61
32 33 34 35 36 37 38 39 40 41 42 42 43 43 44 44 44 45 46 46 47 48 49 49 50 51 52 52 53 54 54 54 54 55 56 57 58 58 58 59 59 59 60
34 34 34 35 36 37 39 39 41 42 42 42 42 43 44 44 45 46 47 47 47 48 49 50 50 51 52 52 53 54 54 55 55 55 54 55 56 56 56 56 57 57 58
35 35 36 36 37 38 39 40 41 41 42 42 42 43 43 44 45 46 46 47 47 48 49 50 50 51 51 51 52 53 53 54 54 54 54 54 54 54 54 54 54 55 56
37 37 38 38 38 39 40 41 41 41 41 41 42 42 43 44 45 46 47 47 48 48 49 50 50 50 51 51 51 51 52 52 51 52 52 52 53 53 53 53 53 53 54
38 39 39 39 40 40 41 41 42 41 41 42 42 43 44 44 45 46 47 48 48 48 48 49 49 50 50 50 50 50 50 49 49 50 50 51 51 51 52 52 53 53 53
40 40 40 40 41 42 42 43 43 42 42 42 43 44 44 45 46 46 47 47 48 48 47 48 48 49 49 50 50 50 49 48 49 49 50 50 50 51 51 51 51 51 52
40 40 41 41 42 42 42 42 42 42 43 43 44 44 45 45 46 46 47 47 47 47 47 47 47 47 48 48 49 49 49 48 48 48 49 50 50 50 50 49 49 50 51
39 40 41 42 42 42 42 42 42 42 43 43 44 45 45 46 46 47 47 47 47 47 47 47 47 47 46 47 47 47 48 48 47 47 48 49 49 49 49 49 49 49 49
39 40 41 41 42 42 42 41 42 43 43 44 45 45 46 46 46 46 46 46 46 46 46 46 46 46 46 46 46 46 46 46 46 46 46 47 48 48 48 48 48 48 48
39 39 40 41 41 41 41 41 42 43 44 44 44 45 45 45 45 45 45 45 45 45 45 45 46 46 45 45 45 46 45 45 45 45 45 45 46 46 47 48 48 48 48
38 39 40 40 40 41 41 41 42 43 43 43 43 44 44 44 44 43 43 43 44 44 44 45 45 45 44 44 45 45 45 45 46 45 45 44 44 45 45 46 46 46 46
39 39 39 39 39 39 40 41 41 42 42 42 43 43 43 42 42 42 42 42 43 43 44 43 43 43 43 43 44 44 44 45 45 45 44 44 44 44 44 45 45 45 45
37 38 38 38 38 39 39 40 40 41 41 41 41 41 41 41 41 41 42 42 43 43 43 43 43 42 42 42 43 43 43 43 44 44 44 44 44 44 44 44 44 45 45
Wind_Direction
264 265 265 266 267 267 267 268 269 269 269 268 267 266 266 266 265 266 267 267 267 267 268 268 267 266 266 267 266 266 267 266 265 264 264 264 263 262 261 261 261 262 262
264 265 266 267 267 267 267 268 269 270 270 270 269 268 268 267 267 266 267 268 268 268 268 268 268 268 268 268 267 266 266 266 265 265 265 263 262 262 262 262 262 263 262
265 266 267 267 268 268 268 269 269 269 271 272 272 271 270 269 268 268 267 267 268 269 269 269 268 267 268 268 269 267 267 267 267 267 266 265 264 263 262 262 262 263 263
265 265 267 268 268 268 267 268 269 269 270 272 273 272 272 271 270 269 268 268 268 268 269 269 268 268 269 268 268 267 267 268 268 267 267 266 266 265 263 261 263 264 264
264 265 267 268 269 269 269 268 270 270 270 271 272 272 273 272 271 270 269 269 268 268 268 269 268 268 268 269 269 268 269 270 270 269 268 267 267 267 265 263 263 264 264
266 265 267 268 269 270 270 269 271 271 270 271 271 273 273 272 272 271 270 269 269 268 268 268 268 268 269 270 270 270 271 271 271 271 269 269 269 268 267 265 264 264 264
268 267 267 268 269 270 271 271 271 271 272 272 272 273 273 272 272 272 272 271 271 269 268 268 268 269 269 270 271 272 272 272 272 272 271 271 270 269 268 267 266 265 264
269 269 268 269 270 270 270 271 271 271 272 272 272 273 274 274 274 273 273 272 272 271 270 270 269 269 270 270 271 272 273 273 273 273 273 272 271 269 268 268 267 266 265
271 271 270 270 271 271 270 271 271 272 272 272 273 274 274 274 274 274 273 274 273 274 273 273 271 271 271 271 272 273 274 274 275 275 275 273 272 271 270 269 269 268 267
274 273 271 270 271 272 271 271 271 271 272 273 274 275 275 275 275 276 275 275 274 275 275 275 274 273 273 273 273 274 274 274 275 275 275 274 273 272 271 271 271 270 269
276 274 273 272 272 272 272 272 273 273 274 275 275 276 276 276 277 276 276 276 275 275 276 276 277 276 275 275 275 275 276 275 275 275 275 275 274 273 271 271 271 270 270
277 276 274 273 274 273 273 273 273 274 275 276 277 277 277 277 277 276 277 277 277 276 276 277 278 278 277 277 277 277 276 276 276 275 275 274 274 273 272 271 272 271 271
276 274 273 273 274 273 273 274 275 275 275 276 277 278 277 277 277 277 278 278 278 278 278 278 279 279 278 278 277 278 278 278 277 277 276 275 274 273 273 272 272 272 271
277 275 274 274 274 274 275 276 277 277 276 277 278 278 278 277 278 279 279 279 279 279 279 279 280 280 279 279 279 278 279 279 279 278 277 276 274 274 274 273 272 272 271
278 278 276 276 276 276 276 277 278 278 278 278 279 279 279 279 279 280 280 280 281 281 281 281 281 281 280 281 280 280 280 279 279 278 278 277 275 275 275 275 273 273 272
280 279 279 279 279 279 279 280 280 280 281 280 280 280 280 280 280 281 282 282 282 282 282 282 282 282 281 282 283 283 282 281 279 278 277 277 276 276 276 276 275 274 273
281 282 281 281 281 281 281 282 282 282 282 282 281 281 281 281 282 282 282 283 283 283 283 283 283 282 282 282 283 283 283 282 281 279 278 277 276 275 275 275 275 274 274
281 282 281 281 282 282 282 282 282 283 283 283 282 282 283 283 283 283 283 283 283 283 283 284 284 284 283 283 283 283 283 283 281 280 279 278 277 276 276 276 275 274 274
282 282 282 282 282 282 282 283 283 283 283 283 283 283 283 284 284 284 284 284 283 283 283 284 284 284 284 284 283 283 283 283 282 281 279 279 279 277 277 277 275 273 272
283 283 283 283 283 283 283 283 283 283 284 284 284 284 284 284 285 285 285 285 285 284 284 284 284 284 284 284 284 283 283 283 282 281 280 280 279 279 277 277 277 275 273
283 284 284 283 283 283 283 283 283 283 284 285 285 285 285 285 285 285 286 285 285 285 284 284 284 284 285 284 284 284 284 283 283 282 282 281 280 278 277 277 277 276 276
284 284 284 284 284 284 284 284 284 284 285 285 286 286 286 286 286 286 286 286 285 285 284 285 285 285 286 286 286 286 285 285 285 284 283 282 281 279 277 277 277 277 276
285 285 286 285 284 284 284 284 284 285 286 286 287 287 287 287 287 286 286 285 285 285 285 285 285 286 286 287 287 287 286 286 286 285 284 283 282 280 278 277 277 276 276
287 287 287 286 285 284 284 285 285 286 287 288 288 289 289 288 288 287 287 286 286 286 286 286 286 287 287 287 287 287 286 286 285 285 285 284 283 282 280 278 277 276 276
287 287 287 286 286 286 286 286 286 287 288 289 289 289 289 288 288 288 288 287 287 287 287 287 287 287 287 287 287 287 286 286 285 285 284 283 283 282 282 280 278 277 277
288 288 288 288 288 288 287 287 288 289 290 290 290 290 290 290 289 289 289 289 289 288 288 288 288 288 288 289 290 289 288 287 286 286 285 284 283 282 281 280 279 278 277
Height
5705 5705 5705 5705 5705 5705 5705 5705 5706 5705 5706 5706 5706 5707 5707 5708 5708 5709 5710 5711 5711 5712 5712 5713 5714 5714 5715 5716 5716 5717 5718 5719 5719 5720 5721 5722 5723 5724 5726 5728 5729 5731 5732
5696 5697 5697 5697 5697 5697 5697 5697 5697 5697 5697 5697 5697 5697 5697 5698 5698 5699 5700 5700 5701 5702 5702 5703 5703 5703 5704 5704 5705 5706 5706 5706 5707 5708 5708 5710 5712 5712 5714 5715 5717 5718 5720
5688 5688 5688 5688 5688 5688 5688 5689 5689 5689 5689 5689 5689 5688 5688 5688 5689 5689 5689 5689 5690 5690 5691 5692 5692 5692 5693 5693 5693 5694 5694 5694 5694 5695 5696 5696 5698 5700 5702 5703 5704 5705 5706
5679 5679 5679 5679 5680 5680 5680 5680 5680 5680 5680 5680 5680 5679 5679 5679 5679 5678 5678 5679 5679 5679 5680 5680 5681 5681 5681 5682 5682 5682 5682 5682 5682 5682 5682 5683 5684 5685 5688 5690 5690 5691 5693
5671 5671 5671 5671 5671 5670 5671 5671 5671 5671 5671 5670 5670 5670 5669 5669 5668 5668 5668 5668 5667 5668 5668 5668 5669 5669 5669 5670 5670 5670 5669 5670 5669 5669 5669 5669 5670 5670 5672 5675 5676 5677 5678
5662 5662 5662 5662 5662 5662 5662 5661 5661 5661 5661 5661 5660 5660 5659 5659 5658 5657 5657 5656 5656 5656 5656 5657 5657 5657 5657 5657 5657 5657 5657 5656 5656 5656 5656 5656 5656 5656 5656 5658 5660 5662 5663
5653 5653 5653 5653 5653 5653 5653 5652 5652 5652 5651 5651 5650 5650 5649 5648 5647 5646 5646 5645 5645 5644 5644 5644 5645 5645 5645 5645 5644 5644 5643 5643 5642 5642 5641 5641 5641 5641 5641 5642 5643 5645 5646
5644 5644 5644 5644 5644 5643 5643 5643 5642 5642 5641 5641 5640 5639 5638 5637 5637 5636 5635 5634 5633 5633 5632 5632 5632 5632 5632 5631 5631 5630 5630 5629 5628 5627 5627 5626 5626 5625 5625 5625 5626 5627 5629
5635 5635 5635 5634 5634 5634 5634 5633 5633 5632 5631 5630 5629 5628 5627 5626 5625 5624 5624 5623 5622 5621 5620 5619 5619 5618 5618 5618 5617 5616 5615 5614 5613 5612 5611 5610 5609 5609 5608 5608 5608 5609 5610
5626 5625 5625 5625 5625 5624 5624 5623 5623 5622 5621 5620 5619 5618 5616 5615 5614 5613 5612 5611 5610 5609 5608 5607 5606 5605 5604 5604 5603 5602 5601 5599 5598 5597 5595 5594 5593 5592 5592 5591 5591 5590 5591
5617 5617 5616 5615 5615 5614 5614 5613 5612 5611 5610 5609 5608 5607 5605 5604 5603 5602 5600 5599 5598 5597 5596 5594 5593 5592 5590 5589 5588 5587 5585 5584 5582 5580 5579 5578 5576 5575 5574 5573 5573 5572 5572
5608 5608 5607 5606 5605 5605 5604 5603 5602 5601 5599 5598 5597 5595 5594 5592 5591 5590 5588 5587 5586 5584 5583 5581 5580 5578 5576 5575 5573 5572 5570 5568 5566 5564 5562 5561 5559 5558 5557 5556 5555 5554 5553
5599 5598 5597 5596 5595 5595 5594 5592 5591 5590 5588 5587 5585 5584 5582 5581 5579 5578 5576 5575 5573 5571 5570 5568 5566 5564 5562 5560 5558 5556 5554 5551 5549 5547 5545 5543 5542 5541 5539 5538 5537 5536 5535
5590 5589 5588 5587 5586 5584 5583 5582 5580 5579 5577 5575 5574 5572 5570 5569 5567 5566 5564 5562 5560 5558 5556 5554 5552 5549 5547 5545 5542 5540 5538 5535 5533 5531 5528 5526 5525 5523 5522 5520 5519 5518 5517
5581 5579 5578 5577 5575 5574 5573 5571 5569 5567 5566 5564 5562 5560 5559 5557 5555 5553 5551 5549 5547 5545 5542 5540 5537 5535 5532 5529 5527 5525 5522 5520 5517 5515 5512 5510 5508 5506 5504 5503 5502 5500 5499
5571 5570 5568 5567 5565 5563 5562 5560 5558 5556 5554 5552 5550 5548 5547 5545 5543 5541 5538 5536 5534 5531 5529 5526 5523 5520 5517 5515 5511 5509 5506 5504 5501 5499 5497 5494 5492 5490 5488 5487 5485 5484 5483
5561 5559 5558 5556 5554 5552 5550 5548 5546 5544 5542 5540 5538 5537 5535 5532 5530 5528 5525 5523 5520 5517 5514 5512 5509 5506 5503 5500 5497 5493 5491 5488 5485 5483 5481 5479 5476 5474 5473 5471 5470 5468 5466
5551 5549 5547 5545 5543 5541 5539 5537 5535 5533 5531 5528 5526 5524 5522 5520 5517 5515 5512 5509 5506 5503 5501 5498 5495 5492 5488 5485 5482 5479 5476 5473 5470 5467 5465 5463 5461 5458 5457 5456 5454 5453 5451
5540 5538 5536 5534 5532 5530 5528 5526 5523 5521 5519 5517 5514 5512 5510 5507 5504 5502 5499 5496 5493 5490 5487 5484 5481 5478 5474 5471 5467 5464 5462 5459 5456 5453 5450 5448 5446 5444 5442 5441 5439 5438 5437
5529 5527 5525 5523 5521 5519 5516 5514 5512 5509 5507 5505 5502 5500 5497 5494 5491 5488 5485 5482 5479 5476 5473 5470 5467 5464 5460 5457 5453 5450 5448 5446 5443 5440 5437 5434 5432 5429 5427 5425 5424 5423 5422
5518 5516 5514 5511 5509 5507 5505 5502 5500 5498 5495 5493 5490 5487 5484 5482 5478 5475 5472 5469 5466 5463 5460 5457 5454 5450 5447 5443 5440 5436 5433 5431 5428 5426 5423 5420 5417 5415 5412 5411 5410 5408 5407
5507 5505 5502 5500 5497 5495 5493 5491 5489 5486 5483 5481 5478 5475 5472 5469 5465 5462 5459 5456 5453 5450 5447 5444 5440 5437 5433 5430 5426 5423 5419 5416 5414 5411 5409 5406 5403 5401 5399 5397 5395 5394 5392
5496 5494 5491 5488 5486 5483 5481 5479 5476 5474 5471 5468 5465 5462 5459 5456 5452 5449 5446 5443 5440 5437 5434 5431 5427 5424 5420 5417 5413 5410 5406 5403 5400 5397 5395 5392 5389 5387 5385 5383 5381 5380 5378
5485 5483 5480 5477 5474 5472 5469 5467 5464 5461 5458 5455 5452 5449 5446 5443 5439 5436 5433 5430 5427 5424 5421 5418 5414 5411 5407 5404 5400 5397 5393 5390 5387 5384 5381 5378 5376 5373 5371 5370 5368 5366 5364
5474 5471 5468 5466 5463 5460 5458 5455 5452 5449 5446 5443 5440 5437 5433 5430 5427 5424 5420 5417 5414 5411 5408 5405 5401 5398 5395 5391 5387 5383 5380 5377 5373 5370 5368 5365 5363 5360 5358 5356 5354 5352 5351
5463 5460 5457 5455 5452 5449 5446 5443 5440 5437 5434 5431 5428 5425 5422 5418 5415 5412 5408 5404 5401 5398 5394 5391 5388 5385 5382 5378 5374 5370 5366 5363 5360 5357 5354 5352 5349 5347 5345 5343 5341 5339 5337